Temp
-7 -7 -7 -7 -7 -6 -6 -6 -7 -9 -9 -9 -9 -9 -9 -8 -8 -8 -7 -8 -8 -8 -9 -9 -9 -10 -10 -10 -9 -9 -9 -8 -8 -8 -8 -7 -7 -7 -7 -7 -7 -7 -8 -8 -8 -8 -8 -8 -9
-8 -8 -8 -7 -7 -7 -7 -7 -8 -8 -8 -8 -8 -8 -9 -8 -8 -8 -8 -8 -8 -8 -9 -9 -9 -9 -10 -10 -10 -9 -9 -9 -8 -8 -8 -8 -7 -7 -7 -7 -7 -8 -8 -8 -8 -8 -8 -8 -9
-7 -7 -7 -7 -7 -8 -8 -8 -8 -8 -8 -8 -9 -9 -8 -8 -9 -8 -9 -8 -8 -9 -9 -9 -9 -9 -10 -10 -10 -10 -9 -9 -9 -9 -8 -8 -8 -8 -8 -8 -8 -8 -8 -8 -8 -8 -8 -8 -9
-8 -8 -7 -7 -7 -7 -8 -8 -8 -8 -8 -8 -9 -9 -8 -9 -9 -9 -9 -9 -9 -9 -9 -9 -9 -9 -10 -10 -10 -10 -9 -9 -9 -9 -9 -8 -8 -8 -8 -8 -8 -8 -8 -8 -8 -8 -8 -8 -9
-8 -8 -8 -7 -8 -8 -8 -8 -8 -9 -9 -9 -9 -8 -9 -9 -9 -10 -10 -10 -10 -9 -9 -10 -9 -9 -10 -10 -10 -10 -10 -9 -9 -9 -9 -9 -9 -8 -8 -8 -8 -8 -8 -8 -8 -8 -8 -8 -9
-8 -8 -8 -8 -8 -9 -8 -8 -9 -9 -10 -10 -10 -10 -9 -9 -10 -10 -10 -10 -10 -10 -10 -10 -10 -10 -10 -10 -10 -11 -10 -10 -9 -9 -9 -9 -9 -8 -8 -8 -9 -8 -8 -8 -8 -8 -8 -8 -9
-8 -8 -8 -8 -9 -9 -9 -9 -10 -10 -10 -11 -11 -11 -10 -10 -11 -11 -11 -11 -11 -10 -10 -10 -10 -10 -10 -11 -11 -11 -11 -10 -10 -9 -9 -9 -9 -9 -8 -8 -9 -9 -8 -8 -8 -8 -8 -8 -8
-9 -9 -10 -10 -11 -11 -11 -11 -11 -12 -12 -12 -12 -12 -12 -12 -11 -12 -12 -12 -11 -11 -10 -10 -10 -10 -10 -10 -11 -11 -11 -11 -10 -10 -9 -9 -9 -9 -9 -9 -9 -9 -9 -8 -8 -8 -8 -8 -8
-10 -10 -11 -12 -12 -13 -13 -13 -13 -13 -13 -14 -14 -14 -14 -14 -13 -12 -13 -13 -13 -12 -11 -10 -11 -11 -11 -10 -9 -11 -11 -11 -10 -10 -10 -9 -9 -10 -9 -9 -9 -9 -9 -9 -9 -8 -8 -9 -9
-11 -12 -13 -13 -14 -14 -14 -14 -15 -14 -14 -14 -14 -14 -14 -14 -14 -14 -14 -14 -13 -13 -12 -11 -11 -11 -11 -11 -11 -11 -11 -11 -11 -10 -10 -10 -9 -10 -10 -9 -9 -9 -9 -9 -9 -9 -9 -9 -9
-11 -12 -13 -14 -15 -15 -16 -16 -16 -16 -16 -16 -16 -15 -15 -15 -15 -15 -15 -14 -14 -13 -12 -12 -12 -11 -11 -11 -11 -11 -11 -11 -11 -10 -10 -10 -10 -9 -10 -9 -9 -9 -9 -9 -9 -9 -9 -9 -9
-11 -13 -14 -15 -16 -17 -18 -19 -20 -20 -20 -19 -18 -17 -17 -16 -16 -16 -15 -15 -15 -14 -13 -12 -12 -12 -12 -12 -10 -10 -11 -11 -11 -10 -10 -10 -10 -9 -9 -10 -10 -9 -9 -9 -9 -9 -9 -9 -9
-12 -14 -15 -17 -19 -20 -22 -23 -23 -23 -23 -23 -22 -21 -19 -17 -17 -17 -16 -15 -16 -15 -13 -13 -13 -12 -12 -11 -11 -11 -11 -10 -11 -10 -10 -10 -10 -10 -9 -10 -10 -10 -9 -9 -9 -9 -9 -9 -9
-14 -15 -17 -20 -21 -22 -23 -23 -24 -24 -24 -24 -24 -24 -23 -20 -19 -18 -17 -17 -16 -16 -14 -13 -14 -13 -12 -11 -10 -10 -10 -11 -11 -11 -10 -11 -11 -10 -10 -10 -10 -9 -9 -9 -9 -9 -9 -9 -9
-15 -17 -21 -22 -23 -23 -23 -23 -24 -24 -24 -24 -24 -24 -24 -24 -22 -21 -19 -17 -17 -16 -15 -14 -14 -13 -13 -12 -11 -11 -9 -10 -10 -11 -11 -11 -11 -10 -10 -10 -10 -10 -9 -9 -9 -9 -9 -9 -9
-16 -19 -22 -23 -23 -24 -24 -23 -24 -24 -24 -24 -24 -25 -25 -25 -25 -24 -21 -19 -17 -16 -16 -15 -14 -14 -13 -13 -12 -11 -10 -11 -10 -10 -11 -10 -11 -11 -11 -10 -10 -10 -10 -10 -9 -9 -9 -9 -9
-17 -20 -22 -23 -24 -24 -24 -23 -24 -24 -24 -25 -24 -25 -25 -25 -25 -25 -24 -21 -19 -17 -16 -15 -15 -13 -13 -14 -10 -12 -11 -10 -11 -10 -11 -11 -11 -11 -11 -10 -10 -10 -10 -10 -9 -9 -9 -9 -10
-18 -21 -23 -23 -24 -24 -24 -23 -24 -24 -24 -25 -25 -25 -26 -25 -25 -24 -25 -23 -20 -18 -17 -16 -16 -16 -14 -14 -12 -11 -10 -10 -11 -10 -10 -11 -11 -11 -11 -10 -10 -10 -10 -10 -10 -10 -9 -10 -10
-20 -23 -23 -24 -24 -24 -24 -24 -24 -25 -25 -25 -25 -25 -26 -26 -25 -25 -24 -24 -21 -19 -18 -17 -16 -16 -14 -13 -12 -12 -12 -11 -9 -11 -11 -11 -11 -11 -11 -10 -10 -10 -10 -10 -10 -10 -10 -10 -10
-22 -23 -24 -24 -24 -24 -24 -24 -25 -25 -26 -26 -26 -26 -26 -26 -26 -25 -25 -24 -23 -20 -19 -17 -16 -16 -15 -13 -14 -12 -12 -11 -11 -11 -12 -11 -11 -11 -11 -10 -10 -10 -10 -10 -10 -10 -10 -10 -10
-23 -24 -24 -24 -24 -24 -24 -25 -26 -26 -26 -27 -27 -26 -26 -26 -26 -26 -25 -24 -23 -21 -20 -18 -17 -15 -14 -14 -13 -12 -12 -11 -11 -10 -10 -11 -11 -11 -11 -11 -11 -10 -10 -11 -11 -10 -10 -11 -11
-23 -24 -24 -24 -25 -25 -25 -26 -26 -27 -27 -27 -27 -27 -27 -27 -27 -26 -26 -25 -24 -23 -21 -19 -18 -16 -16 -15 -15 -14 -13 -12 -12 -11 -12 -11 -11 -12 -11 -11 -11 -11 -10 -10 -11 -11 -11 -11 -11
-23 -24 -24 -24 -24 -25 -25 -25 -26 -26 -27 -27 -27 -27 -27 -27 -27 -27 -27 -26 -25 -23 -22 -20 -18 -18 -16 -15 -14 -13 -13 -12 -12 -10 -11 -12 -12 -12 -11 -11 -11 -11 -10 -10 -11 -11 -11 -11 -11
-23 -24 -24 -23 -24 -25 -25 -25 -25 -25 -26 -26 -26 -26 -26 -26 -27 -27 -27 -26 -26 -25 -23 -21 -19 -17 -16 -14 -15 -14 -13 -13 -12 -12 -13 -13 -12 -12 -11 -11 -11 -11 -10 -10 -11 -11 -11 -11 -11
-23 -24 -24 -24 -24 -25 -25 -25 -26 -26 -25 -26 -26 -26 -27 -27 -27 -26 -27 -26 -26 -26 -24 -22 -20 -18 -17 -16 -14 -14 -14 -13 -13 -11 -11 -13 -12 -12 -11 -11 -10 -10 -11 -11 -11 -11 -11 -12 -12
-23 -24 -25 -25 -24 -24 -25 -26 -26 -26 -25 -25 -26 -26 -25 -25 -26 -27 -27 -27 -26 -25 -25 -23 -21 -19 -17 -16 -15 -15 -14 -14 -13 -12 -11 -12 -12 -12 -12 -11 -11 -11 -11 -11 -11 -11 -11 -11 -11
-24 -24 -25 -24 -24 -23 -25 -25 -25 -25 -25 -25 -26 -25 -25 -25 -25 -25 -25 -26 -27 -25 -25 -23 -21 -19 -17 -16 -15 -16 -14 -13 -13 -12 -12 -12 -12 -12 -12 -12 -11 -11 -11 -11 -11 -11 -11 -11 -11
-24 -25 -25 -25 -25 -25 -24 -26 -25 -24 -24 -25 -25 -25 -25 -25 -26 -26 -25 -25 -27 -27 -24 -23 -21 -19 -17 -15 -16 -15 -14 -13 -13 -13 -12 -12 -12 -13 -12 -12 -12 -11 -11 -11 -11 -11 -11 -11 -11
-23 -25 -25 -26 -26 -26 -25 -27 -26 -25 -25 -25 -26 -25 -25 -25 -26 -27 -27 -27 -27 -27 -24 -23 -21 -18 -16 -15 -15 -15 -15 -14 -13 -13 -12 -11 -12 -12 -12 -12 -12 -12 -12 -12 -11 -11 -11 -11 -11
-23 -25 -26 -26 -25 -27 -26 -26 -26 -26 -26 -26 -25 -25 -25 -25 -26 -27 -28 -28 -28 -26 -24 -22 -22 -18 -15 -15 -16 -16 -15 -14 -13 -13 -12 -12 -12 -12 -13 -12 -12 -12 -12 -12 -12 -12 -12 -12 -12
Height
5827 5826 5825 5824 5824 5821 5821 5822 5820 5821 5818 5816 5815 5816 5818 5817 5817 5820 5821 5825 5828 5832 5835 5837 5839 5841 5844 5847 5849 5850 5852 5854 5855 5855 5856 5859 5861 5864 5866 5868 5870 5872 5872 5871 5871 5871 5872 5871 5872
5822 5820 5819 5818 5817 5814 5816 5816 5815 5812 5810 5809 5808 5808 5809 5810 5811 5812 5813 5817 5820 5824 5828 5831 5834 5836 5840 5842 5845 5847 5848 5850 5853 5853 5855 5857 5859 5861 5864 5866 5869 5871 5872 5872 5871 5871 5872 5872 5873
5816 5814 5811 5807 5806 5806 5805 5804 5804 5802 5801 5801 5801 5800 5800 5801 5803 5804 5806 5808 5812 5816 5820 5823 5827 5829 5833 5837 5840 5843 5845 5846 5849 5850 5852 5854 5857 5859 5861 5864 5867 5869 5871 5872 5872 5871 5872 5873 5874
5810 5808 5804 5800 5798 5798 5795 5791 5792 5791 5788 5789 5790 5790 5789 5790 5793 5796 5799 5800 5803 5807 5812 5815 5820 5823 5824 5829 5833 5837 5841 5844 5845 5846 5849 5851 5854 5857 5859 5862 5865 5867 5869 5871 5872 5871 5872 5874 5874
5802 5798 5793 5790 5788 5783 5780 5779 5777 5775 5775 5774 5774 5776 5779 5780 5780 5784 5788 5792 5794 5798 5803 5807 5811 5816 5818 5821 5825 5829 5834 5838 5842 5843 5845 5848 5850 5854 5857 5860 5863 5865 5868 5870 5871 5871 5872 5874 5875
5792 5787 5783 5778 5774 5770 5765 5762 5759 5757 5755 5756 5758 5760 5763 5766 5768 5771 5775 5779 5784 5789 5792 5796 5800 5806 5809 5812 5816 5822 5826 5831 5835 5839 5842 5845 5846 5850 5853 5857 5861 5864 5867 5868 5870 5871 5872 5875 5877
5781 5774 5770 5763 5757 5750 5746 5742 5739 5735 5735 5734 5736 5740 5745 5747 5752 5757 5762 5765 5771 5777 5782 5784 5789 5793 5797 5803 5808 5812 5819 5823 5828 5833 5837 5841 5844 5846 5850 5853 5858 5862 5866 5867 5870 5871 5872 5875 5878
5767 5758 5751 5743 5737 5729 5724 5718 5715 5711 5710 5709 5711 5716 5722 5728 5734 5740 5747 5752 5756 5763 5769 5774 5778 5785 5791 5793 5799 5805 5810 5816 5822 5827 5831 5835 5839 5842 5846 5850 5855 5859 5864 5866 5869 5871 5872 5874 5878
5750 5740 5731 5722 5715 5708 5702 5696 5689 5686 5686 5686 5688 5693 5699 5706 5714 5721 5729 5736 5743 5748 5756 5761 5767 5774 5779 5786 5790 5795 5803 5809 5814 5820 5824 5828 5835 5839 5842 5846 5851 5856 5861 5865 5867 5869 5872 5874 5877
5735 5724 5711 5701 5691 5683 5676 5669 5666 5664 5662 5661 5659 5667 5675 5683 5690 5700 5707 5717 5726 5733 5741 5747 5755 5761 5768 5779 5783 5787 5793 5800 5807 5813 5818 5824 5830 5836 5838 5843 5847 5852 5857 5862 5865 5868 5871 5873 5876
5712 5700 5687 5676 5664 5655 5649 5643 5637 5636 5636 5629 5633 5637 5645 5656 5667 5677 5686 5696 5708 5716 5724 5732 5740 5749 5757 5769 5775 5776 5783 5791 5799 5805 5811 5818 5824 5830 5835 5839 5844 5849 5854 5859 5862 5865 5869 5872 5874
5692 5677 5664 5650 5637 5628 5621 5615 5612 5607 5605 5604 5605 5611 5614 5626 5640 5653 5665 5675 5688 5699 5707 5716 5725 5735 5745 5756 5762 5764 5773 5780 5789 5796 5803 5812 5819 5823 5830 5835 5840 5845 5848 5854 5858 5862 5866 5870 5872
5673 5658 5641 5626 5616 5608 5604 5599 5596 5593 5588 5586 5584 5584 5590 5599 5613 5628 5642 5654 5667 5678 5690 5700 5714 5720 5733 5743 5746 5754 5759 5772 5780 5787 5795 5804 5812 5817 5824 5831 5836 5840 5844 5850 5854 5859 5863 5866 5870
5656 5638 5621 5609 5603 5598 5595 5591 5585 5580 5577 5575 5573 5570 5571 5577 5589 5602 5617 5630 5644 5657 5669 5680 5693 5704 5718 5725 5727 5730 5748 5762 5769 5777 5786 5795 5803 5811 5819 5826 5829 5834 5840 5846 5850 5855 5859 5863 5867
5641 5624 5608 5600 5594 5590 5587 5584 5577 5572 5568 5563 5559 5556 5558 5561 5566 5576 5590 5606 5621 5635 5647 5661 5672 5685 5700 5710 5729 5727 5738 5745 5759 5770 5777 5786 5796 5804 5813 5817 5823 5828 5834 5840 5846 5851 5856 5860 5863
5627 5612 5602 5593 5586 5582 5579 5577 5569 5563 5560 5554 5549 5545 5544 5547 5550 5555 5567 5582 5598 5615 5628 5640 5652 5668 5682 5695 5708 5716 5727 5730 5743 5760 5769 5777 5787 5797 5805 5809 5816 5823 5829 5834 5840 5847 5851 5856 5861
5616 5603 5594 5589 5580 5574 5568 5565 5558 5553 5548 5544 5539 5535 5533 5534 5539 5542 5549 5560 5576 5593 5609 5622 5633 5649 5665 5682 5694 5707 5715 5718 5731 5748 5758 5769 5778 5788 5796 5802 5810 5816 5823 5830 5835 5842 5847 5852 5856
5606 5596 5589 5580 5574 5565 5558 5552 5544 5540 5534 5529 5526 5523 5522 5522 5525 5530 5535 5542 5555 5569 5585 5604 5616 5631 5647 5666 5681 5694 5704 5703 5716 5730 5742 5758 5770 5779 5786 5794 5802 5810 5818 5825 5831 5837 5843 5848 5853
5596 5587 5580 5573 5565 5557 5547 5541 5532 5525 5519 5516 5513 5512 5511 5512 5513 5516 5522 5528 5536 5551 5564 5583 5599 5618 5633 5650 5667 5679 5697 5697 5707 5725 5737 5748 5760 5770 5778 5787 5795 5803 5812 5821 5827 5832 5838 5844 5849
5586 5580 5575 5567 5558 5548 5540 5532 5521 5515 5510 5505 5501 5501 5501 5501 5503 5505 5509 5517 5523 5533 5548 5564 5580 5598 5616 5632 5652 5666 5681 5691 5699 5706 5724 5740 5752 5759 5771 5780 5790 5797 5805 5814 5822 5828 5835 5841 5845
5581 5575 5569 5560 5554 5543 5533 5526 5515 5509 5503 5498 5496 5494 5492 5493 5493 5494 5497 5503 5513 5519 5531 5545 5564 5582 5595 5612 5636 5652 5669 5681 5692 5691 5706 5723 5740 5750 5763 5773 5783 5791 5799 5809 5817 5824 5830 5836 5841
5578 5571 5563 5555 5545 5536 5528 5521 5510 5504 5498 5494 5492 5490 5487 5485 5483 5483 5485 5490 5498 5504 5512 5528 5545 5561 5580 5595 5619 5639 5652 5670 5679 5684 5700 5718 5732 5740 5753 5766 5777 5786 5792 5801 5811 5818 5825 5831 5837
5575 5564 5557 5550 5540 5532 5524 5516 5507 5500 5494 5488 5484 5481 5478 5474 5471 5471 5471 5475 5479 5487 5494 5510 5526 5544 5562 5582 5604 5622 5640 5655 5669 5676 5692 5708 5721 5734 5745 5758 5770 5779 5786 5795 5804 5811 5819 5825 5831
5566 5559 5551 5544 5536 5527 5520 5512 5506 5498 5490 5484 5479 5474 5469 5465 5460 5456 5453 5456 5461 5467 5474 5489 5506 5526 5545 5565 5586 5603 5625 5643 5657 5665 5680 5699 5711 5725 5738 5750 5763 5773 5780 5788 5798 5805 5812 5819 5825
5561 5555 5549 5540 5530 5523 5515 5507 5501 5492 5485 5479 5473 5466 5460 5452 5448 5444 5440 5439 5446 5448 5454 5466 5486 5507 5527 5548 5573 5595 5616 5631 5648 5661 5667 5684 5704 5717 5730 5741 5754 5765 5773 5781 5790 5798 5807 5814 5821
5556 5548 5539 5532 5524 5518 5511 5503 5496 5486 5478 5470 5461 5453 5445 5438 5431 5427 5425 5424 5425 5431 5439 5448 5466 5486 5508 5533 5558 5582 5603 5620 5642 5655 5660 5671 5697 5711 5726 5732 5749 5759 5768 5776 5786 5794 5801 5808 5815
5550 5545 5539 5531 5523 5512 5509 5498 5490 5478 5470 5462 5453 5442 5433 5425 5418 5409 5403 5403 5406 5410 5422 5432 5448 5470 5493 5519 5543 5570 5594 5613 5634 5645 5653 5669 5686 5705 5720 5732 5742 5753 5761 5771 5781 5788 5796 5803 5810
5549 5540 5533 5525 5517 5508 5501 5492 5482 5474 5463 5454 5445 5432 5423 5414 5404 5395 5389 5387 5389 5391 5403 5417 5434 5454 5480 5504 5536 5566 5584 5603 5621 5636 5647 5660 5677 5697 5710 5726 5735 5745 5754 5765 5774 5781 5789 5796 5804
5546 5536 5528 5521 5513 5504 5492 5490 5477 5466 5457 5445 5435 5422 5408 5397 5388 5380 5377 5374 5373 5371 5381 5399 5421 5440 5469 5493 5528 5555 5574 5598 5613 5627 5642 5657 5672 5685 5702 5718 5728 5739 5747 5758 5767 5776 5783 5791 5798
5544 5531 5523 5516 5510 5501 5490 5487 5471 5461 5451 5438 5426 5411 5398 5384 5377 5368 5362 5357 5354 5353 5363 5382 5406 5428 5461 5484 5524 5550 5566 5588 5605 5620 5636 5652 5666 5682 5695 5709 5720 5730 5740 5751 5762 5770 5777 5785 5793
Wind_Speed
20 20 22 23 27 26 24 22 22 20 26 29 32 32 33 34 34 35 35 33 33 32 30 30 30 26 25 23 21 19 17 14 13 13 15 15 14 12 11 9 8 6 4 4 6 6 5 10 10
24 25 27 28 32 33 31 29 29 33 33 32 35 38 39 38 37 36 36 34 34 31 33 33 32 32 31 27 26 23 21 17 15 15 16 16 15 14 13 12 10 9 5 4 5 5 5 9 12
30 32 35 39 40 38 37 36 37 41 42 42 40 41 43 42 41 39 39 38 35 35 34 35 36 34 34 32 28 27 25 21 18 17 17 17 16 16 16 15 13 11 8 3 5 7 7 10 14
33 37 41 44 45 44 44 47 46 45 47 48 49 47 47 47 45 44 41 41 40 38 37 36 35 38 35 35 33 31 29 24 21 19 19 18 17 17 19 17 14 13 10 6 6 8 9 11 15
39 43 47 50 50 52 54 56 58 55 54 54 54 55 54 52 51 49 48 45 44 42 41 40 36 35 38 37 37 36 33 29 25 23 21 20 19 19 20 18 16 15 13 10 7 10 10 14 16
47 50 54 55 57 59 62 64 63 65 64 60 60 60 59 58 57 54 53 51 49 47 44 43 42 39 37 40 39 39 37 33 30 27 24 23 22 21 22 20 19 17 15 13 10 11 12 15 18
54 57 58 61 62 64 65 66 69 70 71 69 66 64 64 65 63 59 56 56 54 52 50 49 47 44 41 41 43 42 40 37 34 31 28 26 25 23 24 22 22 19 17 16 13 12 14 17 20
58 61 64 66 68 68 69 70 73 74 74 75 71 70 67 67 68 63 61 60 57 57 56 54 50 47 45 43 43 46 43 40 39 35 32 30 29 26 26 25 24 21 19 18 16 15 15 19 19
64 67 68 69 68 68 69 70 75 78 78 78 76 74 70 68 69 68 64 64 63 61 59 59 56 52 50 47 46 47 46 43 42 40 37 34 31 28 28 28 26 25 21 20 20 17 17 19 18
68 67 68 69 69 69 68 70 72 76 78 81 80 78 75 72 71 71 68 66 67 67 63 63 62 57 56 49 48 48 49 47 45 43 39 37 33 31 30 29 28 28 24 22 22 20 19 19 19
75 77 76 75 73 72 70 66 67 70 74 81 83 83 81 78 75 75 73 70 70 70 70 67 65 63 58 53 51 53 51 51 48 44 44 40 35 34 31 31 30 29 26 24 24 25 22 20 20
83 83 80 79 77 69 61 54 54 60 66 73 77 81 83 83 79 78 78 75 72 73 74 73 69 66 63 54 47 57 53 52 51 48 47 42 38 36 34 33 32 29 30 29 27 27 25 22 21
86 84 82 77 61 50 43 39 38 38 40 45 54 63 76 83 82 79 80 81 78 77 77 76 67 69 65 63 63 75 54 56 52 53 49 44 41 38 37 33 34 32 33 32 29 27 27 26 23
85 82 73 51 43 38 28 25 24 27 32 37 45 47 52 68 77 78 80 84 84 83 82 80 75 73 69 68 69 64 45 57 53 56 52 48 44 40 38 34 37 35 35 33 31 29 28 27 25
84 76 50 38 38 33 25 24 30 28 24 28 31 41 45 47 57 67 75 84 88 89 88 86 84 80 74 70 73 63 85 70 59 56 55 52 47 41 38 39 40 40 36 34 34 31 29 27 25
81 62 34 33 34 34 31 27 33 33 32 30 31 33 39 43 45 52 62 80 89 91 92 91 89 87 79 77 70 58 65 72 62 58 58 55 51 45 41 43 42 43 38 36 35 35 32 29 27
77 51 31 29 35 37 38 31 34 36 37 38 36 34 34 40 43 44 51 71 88 93 95 94 92 86 85 78 65 63 84 59 66 61 61 58 55 48 45 46 44 45 44 38 36 35 33 32 29
71 39 28 34 37 39 39 37 41 38 40 42 44 40 36 34 42 47 44 63 83 95 97 98 97 93 87 79 72 78 75 62 76 69 66 62 57 52 50 49 47 47 46 40 36 34 33 30 28
57 35 33 37 38 40 39 39 43 43 43 41 42 43 43 36 35 47 51 49 78 94 99 101 101 88 89 88 84 84 82 67 81 65 65 64 60 56 52 51 50 48 48 41 37 34 32 28 25
47 36 36 39 40 42 40 42 43 39 34 32 35 37 40 39 37 41 53 53 69 90 100 103 103 100 94 86 80 93 86 76 66 78 67 67 62 59 55 52 51 50 50 47 40 36 31 28 26
42 37 37 41 39 38 40 36 36 32 29 27 23 23 28 34 37 39 46 58 58 85 99 104 106 103 95 101 86 75 78 80 79 76 75 71 67 62 58 53 52 50 51 49 42 38 34 30 27
39 35 39 41 36 35 38 34 33 30 28 24 23 25 28 28 28 37 44 51 63 74 95 106 106 109 103 98 88 92 80 75 76 80 71 68 68 64 61 55 53 51 51 50 45 42 37 33 31
40 34 37 37 33 32 27 26 29 28 25 23 21 25 30 34 33 33 41 52 61 68 86 104 111 111 110 105 93 98 73 66 87 86 77 78 69 66 64 57 53 53 51 50 48 45 40 37 35
41 34 35 31 31 26 24 24 26 26 25 24 21 20 23 21 22 28 30 57 61 69 74 100 113 116 114 110 104 104 87 66 72 72 79 77 69 69 65 60 54 53 51 49 49 47 45 40 38
42 33 33 31 32 25 26 29 33 32 33 32 31 31 32 38 33 27 23 39 67 71 76 86 113 117 118 109 101 94 82 80 69 75 75 79 74 71 68 63 59 54 53 50 49 48 45 42 39
45 34 38 38 38 25 27 35 38 35 38 38 42 46 41 35 34 35 33 28 50 76 77 83 104 121 122 113 110 100 88 91 75 70 77 83 77 71 69 64 61 56 52 50 47 45 45 43 40
50 36 35 34 35 31 30 36 41 42 42 41 43 46 39 35 33 31 33 37 32 64 84 87 100 122 124 122 109 94 82 78 85 65 73 75 78 69 64 63 62 58 52 48 45 44 42 41 39
50 38 36 39 40 39 37 40 43 42 42 41 44 50 48 44 33 27 30 33 26 38 78 90 100 120 124 124 110 102 89 86 77 69 79 72 78 73 66 66 65 60 54 49 47 45 43 41 38
54 40 36 38 43 44 47 43 47 46 46 45 49 53 57 51 33 29 27 29 33 38 65 86 95 121 125 125 111 102 93 81 75 65 82 77 75 72 70 69 65 61 57 53 48 44 42 40 38
55 44 35 38 43 42 48 44 49 50 49 49 53 60 60 45 36 35 35 25 24 36 57 78 91 121 127 126 113 103 94 89 68 60 72 73 80 74 72 69 65 63 59 56 52 48 44 42 39
Wind_Direction
312 308 306 298 295 300 301 301 284 270 259 252 254 252 248 247 248 249 258 256 256 254 250 245 237 231 235 232 229 226 224 225 221 217 213 214 211 210 202 199 189 184 143 101 87 73 100 116 118
306 301 297 294 294 298 300 290 281 270 260 253 253 251 249 247 248 250 252 252 251 248 248 248 244 237 234 232 233 229 223 220 220 213 211 211 210 205 195 196 191 183 176 121 109 95 111 124 124
312 308 304 303 303 301 290 283 277 274 269 264 255 252 251 249 247 245 247 251 248 247 243 245 245 238 235 232 231 229 227 218 217 214 209 207 210 204 193 194 190 187 185 153 124 113 120 132 129
310 310 307 306 308 304 293 285 277 270 269 265 263 255 249 247 244 245 242 243 248 246 244 245 243 244 231 231 228 228 226 225 218 215 210 206 206 208 194 192 187 193 187 179 134 124 128 140 135
311 308 305 307 303 296 291 289 283 273 263 259 256 257 256 248 243 239 240 241 242 244 245 242 242 241 239 229 227 223 223 221 221 220 214 207 203 206 198 191 188 196 188 179 151 133 135 146 139
310 307 306 302 299 294 290 285 279 274 267 259 254 252 251 250 244 239 236 236 237 238 238 241 237 237 237 231 224 224 221 219 218 219 219 211 204 202 198 192 191 197 188 179 164 146 139 146 142
313 309 304 297 294 289 285 281 277 272 267 262 257 251 246 247 245 240 236 233 233 233 235 235 237 232 228 231 225 222 222 219 218 216 218 218 209 200 199 192 191 197 190 180 169 158 143 146 147
311 307 303 300 294 289 286 281 275 269 263 260 255 250 246 243 243 240 235 233 231 230 231 233 234 234 233 225 226 224 219 219 217 216 215 217 214 203 200 195 192 196 194 183 174 161 152 150 151
315 310 306 301 297 291 285 278 271 269 266 262 257 252 246 242 240 239 234 231 230 228 228 231 230 231 231 232 227 221 219 216 216 215 215 215 214 209 202 196 194 195 192 190 179 173 164 157 156
315 311 309 306 301 294 285 278 272 269 267 264 260 256 249 243 238 235 234 228 227 227 226 228 229 228 231 230 230 222 219 215 215 215 216 215 215 213 204 199 196 197 191 194 187 182 177 166 162
322 318 316 312 305 298 294 288 277 268 263 261 257 253 251 244 238 233 230 227 224 223 223 226 225 227 227 225 227 226 219 215 212 212 215 215 214 215 209 198 201 196 194 194 192 189 184 177 171
324 321 319 314 309 306 297 286 274 268 263 258 257 253 251 245 238 233 228 225 222 221 221 222 225 224 224 221 221 226 220 214 211 209 212 214 214 213 210 201 203 198 194 198 198 193 191 187 180
324 325 320 318 312 304 303 300 294 285 274 268 264 260 250 246 242 232 227 224 219 218 219 220 223 221 222 221 222 220 215 218 210 209 208 210 213 213 208 206 201 202 197 199 198 196 195 195 191
329 328 324 316 313 311 318 317 308 299 296 283 270 265 259 251 242 236 226 221 218 215 215 216 221 220 218 218 213 200 221 216 211 210 207 207 208 210 205 201 205 201 200 200 201 199 198 199 198
334 328 323 318 318 312 319 319 303 300 309 293 280 263 260 256 246 238 226 219 218 213 213 213 216 219 216 218 215 214 201 226 211 209 207 206 204 206 201 201 205 202 200 200 202 201 202 200 201
336 330 322 320 315 312 309 307 289 282 282 282 282 275 258 249 251 240 226 218 215 215 212 211 214 216 214 216 212 211 210 194 204 209 207 205 202 202 200 202 202 203 203 201 202 202 202 203 205
334 330 318 318 312 311 308 299 289 286 276 270 271 271 267 249 241 244 228 216 213 213 213 211 213 205 213 212 208 214 214 199 200 206 206 204 201 200 201 202 200 203 205 204 202 202 204 204 206
334 329 321 321 320 318 309 306 299 291 279 274 269 265 264 257 238 237 235 214 212 211 212 211 212 213 211 208 214 213 202 193 199 201 202 203 200 199 202 201 200 201 206 206 202 201 202 203 206
335 329 325 326 324 322 311 308 300 295 287 282 275 269 266 260 248 233 232 220 210 211 211 211 212 208 210 205 207 211 217 205 190 201 202 201 198 199 202 202 201 200 205 206 204 200 201 198 200
334 331 328 329 327 324 315 312 305 307 310 297 287 276 266 265 256 241 229 226 214 210 210 209 211 209 209 206 204 207 206 208 203 197 202 202 199 198 202 203 201 200 204 206 204 204 200 199 199
334 332 330 331 333 327 323 327 323 320 315 308 290 279 276 261 262 252 239 225 220 211 211 210 209 209 205 206 204 205 202 205 192 189 199 198 200 197 201 202 202 202 203 204 204 205 202 196 199
342 333 336 339 338 333 344 353 344 340 334 324 288 275 278 280 275 254 244 233 221 218 212 209 209 209 207 212 204 206 211 201 188 194 197 202 198 195 200 201 202 202 204 205 203 205 204 203 204
343 337 341 343 349 341 1 8 5 359 350 343 328 305 293 287 278 269 248 235 228 219 218 210 208 208 208 203 201 201 199 193 197 202 201 202 196 197 198 199 201 203 203 205 204 206 206 208 207
343 339 340 344 351 343 349 348 350 346 340 330 325 320 317 319 297 277 260 232 226 224 218 212 209 206 208 203 204 204 195 194 207 202 203 199 196 198 199 199 202 203 204 204 205 205 207 208 211
342 336 340 347 352 353 340 337 341 335 330 326 321 314 306 298 298 291 284 236 227 225 222 215 209 207 206 205 201 201 200 200 211 197 188 195 196 198 199 198 203 204 204 204 205 207 209 209 213
345 339 344 347 347 349 352 339 341 339 334 333 335 333 338 332 306 289 272 265 229 225 221 215 211 207 206 203 199 200 199 208 204 196 200 190 194 199 200 195 202 204 205 206 205 207 211 212 215
347 340 339 345 347 344 349 334 343 342 342 336 335 337 341 337 333 296 270 249 245 225 220 214 209 207 203 203 202 199 196 201 202 201 192 193 202 201 202 198 201 203 205 207 207 209 211 213 216
344 338 336 340 345 343 345 344 342 349 344 343 341 336 333 327 325 320 279 247 255 232 219 214 206 206 202 201 199 193 195 187 199 203 196 192 195 198 200 203 201 203 204 206 208 209 212 213 215
347 341 335 337 339 345 340 354 351 350 348 344 342 338 335 337 319 321 305 273 266 234 215 212 206 205 200 199 191 189 194 195 195 202 203 200 201 196 199 203 201 204 205 208 209 210 212 214 215
350 343 338 334 337 346 341 357 353 345 344 339 343 340 336 339 337 326 313 284 279 224 207 208 205 203 197 198 192 199 199 193 185 183 202 202 199 197 198 201 202 204 206 209 210 211 214 215 215